Weather History for KBIL - May, 2013

Change the Weather History Date:

Tuesday, May 28, 2013

  Actual Average Record
Temperature  
Mean Temperature 59 °F 59 °F  
Max Temperature 70 °F 71 °F 91 °F (1958)
Min Temperature 47 °F 47 °F 27 °F (1947)
Degree Days  
Heating Degree Days 6 7  
Month to date heating degree days 215 290  
Since 1 July heating degree days 6307 6667  
Cooling Degree Days 0 1  
Month to date cooling degree days 27 10  
Year to date cooling degree days 27 11  
Growing Degree Days 9 (Base 50)    
Moisture  
Dew Point 46 °F    
Average Humidity 63    
Maximum Humidity 86    
Minimum Humidity 40    
Precipitation  
Precipitation 0.04 in 0.07 in 0.51 in (1982)
Month to date precipitation 2.64 1.95  
Year to date precipitation 4.80 5.63  
Snow  
Snow 0.00 in 0.00 in T in (1989)
Month to date snowfall T 2.0  
Since 1 July snowfall 40.4 55.0  
Snow Depth 0.00 in    
Sea Level Pressure  
Sea Level Pressure 29.68 in    
Wind  
Wind Speed 7 mph (North)    
Max Wind Speed 17 mph    
Max Gust Speed 20 mph    
Visibility 10 miles    
Events Fog , Rain , Thunderstorm    
T = Trace of Precipitation, MM = Missing Value Source: NWS Daily Summary

Daily Weather History Graph

Daily Weather History Graph

Search for Another Location

Airport or City:

Trip Planner

Search our weather history database for the weather conditions in past years. The results will help you decide how hot, cold, wet, or windy it might be!

Date:

Astronomy

May. 28, 2013 Rise Set
Actual Time 5:30 AM MDT 8:53 PM MDT
Civil Twilight 4:53 AM MDT 9:30 PM MDT
Nautical Twilight 4:05 AM MDT 10:18 PM MDT
Astronomical Twilight 3:03 AM MDT 11:20 PM MDT
Moon No Moon Rise 9:27 AM MDT (5/28)
Length of Visible Light 16h 36m
Length of Day
15h 23m
Waning Gibbous, 82% of the Moon is Illuminated
May 28
Waning Gibbous
May 31
Last Quarter
Jun 8
New
Jun 16
First Quarter
Jun 23
Full

Hourly Weather History & Observations

Time (MDT) Temp. Dew Point Humidity Pressure Visibility Wind Dir Wind Speed Gust Speed Precip Events Conditions
12:53 AM 53.1 °F 46.0 °F 77% 29.75 in 10.0 mi SW 6.9 mph - N/A   Partly Cloudy
1:53 AM 52.0 °F 45.0 °F 77% 29.74 in 10.0 mi SSW 9.2 mph - N/A   Partly Cloudy
2:53 AM 50.0 °F 46.0 °F 86% 29.72 in 10.0 mi SW 4.6 mph - N/A   Scattered Clouds
3:53 AM 51.1 °F 45.0 °F 80% 29.70 in 10.0 mi Calm Calm - N/A   Partly Cloudy
4:53 AM 48.9 °F 44.1 °F 83% 29.71 in 10.0 mi SW 8.1 mph - N/A   Partly Cloudy
5:53 AM 50.0 °F 45.0 °F 83% 29.72 in 10.0 mi North 3.5 mph - N/A Fog Scattered Clouds
6:53 AM 50.0 °F 45.0 °F 83% 29.71 in 10.0 mi West 5.8 mph - N/A   Mostly Cloudy
7:53 AM 50.0 °F 46.9 °F 89% 29.71 in 10.0 mi SW 5.8 mph - 0.00 in   Mostly Cloudy
8:53 AM 55.9 °F 46.0 °F 69% 29.69 in 10.0 mi NNE 5.8 mph - N/A   Mostly Cloudy
9:53 AM 55.0 °F 48.9 °F 80% 29.69 in 10.0 mi East 6.9 mph - N/A   Mostly Cloudy
10:53 AM 60.1 °F 46.9 °F 62% 29.68 in 10.0 mi East 3.5 mph - N/A   Mostly Cloudy
11:53 AM 64.0 °F 46.9 °F 54% 29.66 in 10.0 mi NE 9.2 mph - N/A   Mostly Cloudy
12:53 PM 66.0 °F 45.0 °F 47% 29.65 in 10.0 mi NNE 6.9 mph - N/A   Mostly Cloudy
1:53 PM 66.9 °F 45.0 °F 45% 29.64 in 10.0 mi ENE 6.9 mph - N/A   Mostly Cloudy
2:53 PM 66.9 °F 44.1 °F 44% 29.64 in 10.0 mi NNE 6.9 mph - N/A   Mostly Cloudy
3:53 PM 69.1 °F 44.1 °F 40% 29.63 in 10.0 mi NNE 8.1 mph - N/A   Scattered Clouds
4:53 PM 68.0 °F 44.1 °F 42% 29.62 in 10.0 mi NNW 15.0 mph - N/A   Scattered Clouds
5:53 PM 64.9 °F 46.0 °F 50% 29.64 in 10.0 mi NNW 15.0 mph - N/A   Scattered Clouds
6:53 PM 63.0 °F 46.0 °F 54% 29.64 in 10.0 mi North 9.2 mph - N/A   Scattered Clouds
7:53 PM 63.0 °F 45.0 °F 52% 29.65 in 10.0 mi North 8.1 mph - N/A   Scattered Clouds
8:53 PM 61.0 °F 44.1 °F 54% 29.65 in 10.0 mi North 6.9 mph - N/A   Mostly Cloudy
9:53 PM 61.0 °F 46.0 °F 58% 29.67 in 10.0 mi Calm Calm - N/A   Mostly Cloudy
10:53 PM 59.0 °F 46.9 °F 64% 29.67 in 10.0 mi North 10.4 mph - 0.00 in Rain Light Rain
11:00 PM 59.0 °F 46.9 °F 64% 29.72 in 10.0 mi North 6.9 mph - 0.00 in Thunderstorm Thunderstorm
11:53 PM 57.0 °F 48.9 °F 74% 29.68 in 10.0 mi SSW 5.8 mph - 0.00 in Rain , Thunderstorm Light Thunderstorms and Rain